Temp
7 7 7 7 7 7 7 7 7 7 7 7 7 7 7 7 7 7 7 7 7 7 7 8 7 8 8 7 8 9 9 10 12 11 12 15 15 15 15 16 16 16 17 17 17 16 17 17 18 19 19 19 20 20 21 22 23 23 24 23 22 22 23 25 26 26 27 28 29 29 30 29 30 31 32 33 33 33 31 31 30 29 29 28 28 27 26 26
7 7 7 7 7 7 7 7 7 7 7 7 7 7 7 7 7 7 7 7 7 7 7 7 7 7 7 7 8 9 9 9 10 10 13 16 16 15 16 16 16 17 17 17 16 15 15 17 17 17 18 19 20 20 21 22 23 23 23 23 22 23 25 26 27 27 28 28 29 29 29 29 29 30 31 32 32 31 29 29 29 28 27 27 27 26 26 25
7 7 7 7 7 7 7 7 7 7 7 7 7 7 7 7 7 7 7 7 7 7 7 7 7 7 7 8 9 9 9 9 11 13 16 16 15 15 16 16 16 17 16 16 16 15 15 16 16 17 18 19 20 20 21 22 23 23 23 22 23 25 25 27 27 28 28 29 29 29 29 29 30 30 31 31 31 31 28 27 27 26 26 26 26 25 25 25
7 7 7 7 7 7 7 7 7 7 7 7 7 7 7 7 7 7 7 7 7 7 7 7 7 7 7 8 10 9 8 10 14 16 16 16 15 15 16 16 16 17 17 16 16 16 16 15 16 17 18 18 19 20 20 21 23 23 23 22 24 25 25 26 27 28 28 29 29 29 29 29 30 30 31 31 30 31 29 28 28 27 26 26 25 25 25 24
6 6 6 6 7 7 7 7 7 7 7 7 7 7 7 7 7 7 7 7 7 7 7 7 7 7 7 8 10 9 9 14 16 15 16 16 15 16 16 16 16 16 16 16 16 16 16 16 16 17 18 18 19 20 20 21 23 23 23 23 24 25 25 26 27 28 28 28 28 29 29 29 30 30 30 31 30 30 31 30 29 27 26 26 26 25 24 24
6 6 6 6 6 6 7 7 6 7 7 7 7 7 7 7 7 7 7 7 7 7 7 7 7 7 7 8 10 9 11 15 15 15 16 16 16 16 16 16 16 16 16 16 16 16 16 17 17 18 18 18 18 19 19 21 22 22 22 23 24 24 25 26 27 27 28 28 28 28 29 29 29 29 30 30 30 31 32 31 29 27 27 26 25 25 24 24
6 6 6 6 6 6 6 6 6 6 7 7 7 7 7 7 7 7 7 7 7 7 7 7 7 7 7 8 10 10 10 14 15 15 15 16 16 16 16 16 16 16 16 16 16 16 17 17 17 18 18 18 18 19 19 21 22 21 22 23 23 24 24 26 27 27 27 28 28 29 29 29 29 29 30 30 31 31 31 31 29 27 27 26 25 24 24 24
6 6 6 6 6 6 6 6 6 6 6 6 6 7 7 7 7 7 7 7 7 7 7 7 7 7 7 7 9 9 10 13 16 16 15 16 16 16 16 16 16 16 16 16 16 16 16 17 17 18 18 18 19 19 20 20 20 21 21 22 23 24 24 25 26 26 26 27 27 28 28 28 29 29 29 29 31 31 30 29 28 26 26 25 24 24 24 23
6 6 6 6 6 6 6 6 6 6 6 6 6 6 7 7 7 7 7 7 7 7 7 7 7 7 7 7 7 10 13 15 16 15 15 15 15 15 16 16 16 16 16 16 16 16 16 16 17 17 17 17 18 19 19 19 19 20 21 22 23 24 25 25 25 26 26 26 26 27 27 28 29 29 29 29 30 31 29 27 26 26 25 25 24 24 23 23
6 6 6 6 6 6 6 6 6 6 6 6 6 6 6 6 6 6 6 7 7 7 7 7 7 7 7 7 8 11 15 15 15 15 14 14 14 14 15 16 16 16 16 16 16 16 16 16 16 17 17 17 17 18 19 19 19 20 20 20 21 22 24 25 25 26 26 26 26 26 26 27 28 28 28 29 31 30 28 26 26 25 25 25 24 24 23 23
6 6 6 6 6 6 6 6 6 6 6 6 6 6 6 6 6 6 6 6 6 6 7 7 7 6 6 7 7 11 15 15 15 15 14 14 14 14 15 15 16 16 16 15 16 16 16 16 16 16 17 17 17 17 18 18 18 19 19 19 20 21 22 23 24 25 26 26 27 26 26 27 27 27 28 29 31 30 28 26 26 25 25 25 24 23 23 23
5 6 6 6 6 6 6 6 6 6 6 6 6 6 6 6 6 6 6 6 6 6 6 6 7 6 7 6 6 11 15 15 15 15 14 14 13 14 14 15 15 15 16 15 15 16 16 16 16 15 16 16 16 17 18 18 18 18 19 19 20 21 21 22 23 24 25 26 27 27 25 25 27 27 28 29 30 30 29 27 26 25 25 25 24 23 23 23
5 5 6 6 6 6 6 6 6 6 6 6 6 6 6 6 6 6 6 6 6 6 6 6 7 6 6 5 7 12 14 14 13 13 14 14 13 14 14 15 15 15 16 15 15 16 16 16 16 15 16 16 15 17 18 18 18 18 19 19 19 20 20 21 23 23 25 25 27 27 23 24 26 27 28 29 29 29 29 28 27 26 25 25 24 23 23 23
5 5 5 5 6 5 5 6 6 6 6 6 6 6 6 6 6 6 6 6 6 6 6 6 6 6 6 6 9 13 13 12 11 12 14 14 13 13 14 15 15 16 16 16 16 16 16 16 16 15 16 16 16 17 17 17 18 18 19 19 19 19 20 22 23 23 24 25 27 27 22 23 27 27 28 29 29 29 29 29 27 26 25 24 24 23 23 23
5 5 5 5 5 5 5 6 6 6 6 6 6 6 6 6 6 7 6 6 6 6 6 6 6 6 6 6 9 12 12 11 11 14 15 13 12 13 14 15 15 16 16 16 16 16 16 16 16 15 16 16 16 16 15 16 17 17 18 18 18 18 19 22 23 23 24 25 27 26 22 24 27 28 28 29 29 29 29 28 27 26 25 24 23 23 23 23
5 5 5 5 5 5 5 5 6 6 6 6 6 6 6 7 7 7 7 7 7 7 6 6 6 6 6 7 10 12 12 12 13 15 15 13 13 13 14 15 15 16 16 16 16 16 16 16 15 15 15 16 15 15 15 15 15 16 17 17 18 18 19 21 22 23 24 25 26 25 23 24 26 27 28 29 29 28 28 28 27 27 26 24 23 23 22 23
5 5 5 5 5 5 5 5 6 6 6 5 5 6 8 9 8 8 8 7 7 7 7 7 7 6 7 9 11 13 13 14 15 15 15 15 14 14 14 14 15 15 16 16 16 16 16 15 15 15 15 15 15 15 14 14 14 15 16 16 17 18 19 20 21 23 24 24 25 25 25 25 26 27 28 29 29 28 27 27 27 26 25 24 23 23 22 22
5 5 5 5 5 5 5 5 5 5 5 5 6 8 9 10 10 9 8 8 8 7 7 7 7 7 9 10 12 13 14 15 15 15 15 15 15 15 14 14 15 15 15 15 15 15 15 15 15 14 14 14 14 14 13 14 15 15 15 16 17 18 18 19 20 23 24 24 24 25 24 25 26 27 27 28 29 28 28 28 27 25 24 24 23 22 22 22
4 5 5 5 5 5 5 5 5 5 5 6 7 9 11 10 10 10 9 8 8 8 8 8 7 10 12 12 12 13 14 15 15 15 16 15 15 15 14 15 15 15 14 14 14 15 15 14 14 13 13 13 13 13 13 14 15 15 16 16 17 18 18 19 21 23 24 23 23 24 24 25 26 26 27 27 28 28 28 28 27 25 23 23 23 22 22 22
4 5 5 5 5 5 5 5 5 6 6 6 7 10 10 9 9 10 9 8 9 10 11 10 8 10 12 12 13 13 14 15 15 15 16 15 15 14 14 15 15 14 13 13 13 14 14 13 13 12 12 13 13 14 14 14 15 15 15 16 17 17 18 20 21 23 24 23 23 24 24 25 25 26 27 27 27 27 27 28 27 25 23 23 23 22 22 22
5 5 5 5 5 5 5 5 6 7 7 6 7 8 9 8 8 9 9 9 10 10 10 11 10 10 11 12 13 13 13 14 14 15 16 16 15 14 14 14 13 13 13 13 13 14 14 12 12 13 13 13 13 14 14 14 15 15 15 15 16 16 17 19 21 22 24 23 22 24 24 24 25 25 26 27 27 26 27 27 27 26 23 22 23 23 22 22
5 5 5 5 5 5 5 6 7 8 7 7 7 7 8 9 9 9 9 8 9 10 10 11 11 10 11 12 12 13 13 13 13 14 16 16 15 14 14 13 13 12 13 13 13 12 12 11 12 13 14 14 14 14 14 14 14 14 14 14 14 15 17 18 20 21 23 23 22 23 23 23 25 25 26 27 27 27 27 26 27 27 25 23 22 22 22 22
4 4 4 4 5 5 5 6 8 8 8 7 7 7 8 9 10 10 10 8 9 10 11 10 10 10 11 11 12 13 12 12 13 14 15 15 14 14 14 13 12 12 12 12 12 11 11 11 13 14 14 14 14 14 14 14 14 14 14 14 14 15 16 17 19 20 22 23 23 23 23 23 25 25 25 26 27 27 27 26 27 27 26 24 22 22 22 22
4 4 4 4 4 4 5 7 8 8 8 8 8 9 10 10 10 10 9 8 8 9 10 11 11 11 11 12 13 13 12 13 13 14 16 15 14 14 13 13 12 12 12 12 12 11 11 12 14 14 14 14 13 14 14 13 13 13 14 14 14 16 16 17 18 20 20 21 23 24 22 22 24 24 25 25 26 27 27 27 26 26 26 25 23 22 23 22
4 4 4 4 4 4 6 7 8 8 8 8 9 10 10 10 9 10 9 7 7 9 11 12 12 12 13 13 14 13 13 13 14 15 16 16 15 14 14 14 13 12 12 12 12 11 12 13 14 14 14 14 13 13 14 13 13 13 14 15 15 16 16 17 18 18 18 19 22 23 21 21 23 23 24 25 25 25 26 27 26 26 26 25 23 22 22 22
4 4 4 4 4 5 6 7 8 7 7 8 10 10 10 10 9 10 8 7 8 11 12 12 12 13 14 14 14 14 13 13 15 15 16 16 16 15 14 14 14 13 12 13 12 12 13 14 14 13 13 13 13 13 14 14 13 13 14 16 16 16 16 17 17 17 17 18 21 22 20 20 22 22 24 25 25 25 26 26 26 26 26 25 23 22 22 22
4 4 4 4 5 5 5 7 7 7 8 9 10 9 10 10 9 9 8 8 10 13 13 12 13 13 13 14 14 14 12 13 14 15 16 16 16 15 13 13 13 13 14 13 12 12 13 14 13 13 13 13 13 13 14 15 13 13 15 16 16 16 16 16 17 17 17 18 19 20 21 20 21 22 24 24 25 25 25 26 26 27 26 25 24 22 22 23
4 4 4 5 6 5 5 6 6 6 8 10 9 9 9 10 9 8 9 10 12 13 13 13 13 13 14 14 13 13 12 12 12 13 15 15 15 14 12 13 13 13 13 12 11 12 14 14 13 14 13 13 13 14 15 15 14 14 16 16 16 16 17 17 17 16 17 18 17 18 20 20 20 22 24 24 24 24 25 25 26 26 27 26 24 22 23 23
4 4 5 6 7 7 6 6 6 7 9 10 9 9 9 9 9 8 9 11 12 13 13 13 13 13 13 13 13 12 11 12 12 13 14 14 14 14 12 13 13 12 12 10 9 11 13 14 14 14 13 13 14 14 15 15 14 15 17 16 16 16 16 17 17 17 17 16 16 18 19 19 20 21 23 23 23 24 25 25 26 26 26 27 25 22 23 23
5 5 6 6 7 7 7 6 7 9 10 9 9 9 9 9 8 9 10 11 12 12 12 13 12 12 12 12 12 12 11 12 11 11 11 11 13 14 13 13 12 11 11 10 9 10 12 14 14 14 14 14 14 15 15 15 15 16 16 16 15 16 16 16 17 18 17 15 16 18 19 19 19 21 22 23 23 25 25 25 25 25 26 27 25 22 23 23
6 7 7 7 7 7 6 7 9 9 9 9 9 9 9 9 9 10 11 12 12 12 12 12 12 12 11 10 10 11 11 11 10 9 10 11 11 12 12 12 11 10 10 10 10 11 12 12 13 14 15 15 14 14 14 15 15 15 15 15 15 15 15 15 16 17 16 15 17 18 19 19 18 20 22 24 25 26 26 26 26 25 25 26 24 23 23 23
7 8 8 8 8 7 7 8 10 9 9 9 9 9 8 9 10 10 11 12 12 11 11 11 11 11 10 9 9 10 10 10 9 9 10 11 11 11 11 11 10 9 9 10 10 11 11 12 13 14 15 15 14 13 13 14 14 14 14 14 13 13 14 14 15 16 15 16 18 19 19 19 19 21 23 24 25 26 26 26 27 26 26 26 24 23 23 23
8 9 9 9 9 8 9 9 9 9 9 9 9 8 8 10 11 11 11 12 11 11 11 10 10 10 9 8 9 10 10 10 10 10 11 10 10 11 11 11 11 10 9 10 10 10 10 11 12 13 13 14 14 12 12 12 13 13 13 13 13 12 13 13 14 15 16 17 19 20 20 19 20 22 25 25 25 26 27 27 27 27 27 26 24 23 23 23
9 10 10 10 9 9 10 10 9 9 9 9 9 8 9 9 10 11 11 11 11 11 10 10 10 9 9 9 9 11 10 10 10 11 11 10 9 9 10 10 11 11 10 10 10 10 9 10 11 12 13 14 14 13 13 13 13 13 14 14 14 13 13 14 15 16 16 17 19 19 19 19 20 23 25 26 25 26 27 27 28 27 27 26 24 23 23 22
9 10 10 10 10 10 10 10 9 9 9 9 8 8 9 9 10 10 10 10 10 10 9 9 9 8 9 10 11 11 10 10 11 11 10 9 9 9 9 10 11 11 11 10 9 10 9 9 12 13 13 14 13 14 14 14 12 13 14 14 14 15 15 15 16 17 18 18 19 19 19 21 22 25 26 26 26 27 27 27 27 27 26 25 23 23 23 22
9 10 10 10 11 11 11 10 9 9 9 9 8 8 9 10 10 10 10 10 10 9 8 9 9 8 9 10 11 11 10 10 11 10 9 8 9 10 10 10 11 11 11 10 9 10 9 9 12 13 13 14 14 14 14 13 13 13 14 13 15 17 16 15 16 18 20 18 19 20 20 21 23 24 26 26 26 27 26 26 27 26 25 24 23 23 22 22
9 10 10 10 11 11 11 10 9 9 9 9 9 9 10 10 11 11 11 10 10 8 8 9 9 9 9 10 10 10 10 10 11 11 10 9 10 10 10 11 12 12 12 11 10 10 10 9 11 12 12 13 14 14 14 14 14 14 13 14 16 17 17 16 15 17 19 18 19 21 21 21 21 22 24 25 26 26 26 26 26 25 24 23 22 22 22 22
7 8 8 10 11 11 10 10 9 9 9 8 8 9 10 10 11 12 11 11 10 8 8 9 9 9 9 9 9 10 10 10 10 11 11 10 11 12 11 11 12 12 12 12 11 11 11 9 11 12 12 13 14 13 13 14 15 14 14 16 16 14 15 16 15 16 18 18 19 21 21 21 21 22 24 24 25 26 25 25 26 25 24 23 23 22 22 22
7 8 10 11 12 11 10 10 9 9 8 8 8 9 10 11 11 12 12 11 9 8 8 9 9 9 9 9 9 10 10 10 11 11 11 11 11 12 13 13 13 13 13 13 11 10 10 9 10 11 11 11 13 12 12 13 15 15 15 15 15 13 14 15 16 17 18 19 20 20 21 21 22 24 25 25 25 26 25 25 25 25 24 23 23 22 22 21
7 9 11 11 11 11 10 10 9 8 8 9 9 9 10 11 11 12 12 10 9 8 8 8 8 9 9 9 9 10 10 11 11 11 11 12 12 12 13 13 14 14 14 13 12 10 10 9 9 10 10 10 12 12 12 13 14 14 14 14 14 14 15 15 17 18 18 19 20 20 20 21 23 26 26 26 26 26 25 25 25 24 24 23 23 22 22 21
6 9 10 10 11 11 10 9 9 8 8 8 9 9 10 11 12 12 12 10 10 10 9 8 8 9 9 9 9 10 10 11 11 11 12 12 12 13 14 14 14 14 13 12 11 10 9 8 9 10 10 10 12 14 14 14 15 15 14 14 14 14 15 15 16 18 20 20 20 21 20 21 25 26 25 26 27 26 25 25 25 24 24 23 23 23 22 21
7 10 10 10 10 11 10 9 9 8 8 9 10 10 11 12 12 13 12 11 10 10 9 8 8 9 9 9 9 9 10 10 11 11 12 13 13 14 15 15 15 14 12 11 10 10 9 9 9 10 11 11 12 13 15 16 16 16 15 15 15 15 15 15 16 18 20 20 21 21 20 22 27 27 26 26 27 26 25 25 25 24 23 23 23 22 22 21
7 9 10 10 11 11 11 10 10 9 9 10 12 12 12 13 13 13 13 12 10 9 8 8 7 8 9 9 9 9 10 10 10 11 12 13 14 15 15 15 16 14 12 10 10 10 9 9 9 10 11 11 11 12 15 16 16 15 15 15 15 16 16 17 17 18 18 18 20 21 20 23 27 26 25 26 26 25 25 25 25 24 23 23 23 22 22 21
5 6 9 10 11 11 10 9 10 10 10 11 12 12 12 12 13 13 12 11 11 9 8 8 7 8 9 9 9 9 10 10 10 11 12 12 14 15 15 16 16 14 12 11 11 10 10 9 10 10 10 10 11 12 13 14 15 14 15 15 16 16 17 17 18 18 18 18 20 21 20 23 26 26 25 25 24 24 25 25 25 24 22 22 22 22 21 21
6 7 8 10 11 11 10 10 10 9 10 10 10 10 12 12 13 13 12 11 11 10 8 8 8 8 8 9 9 10 10 10 10 11 11 12 13 14 15 15 15 15 14 14 12 11 11 10 10 11 11 10 11 12 12 13 14 14 15 15 16 16 16 17 17 17 17 19 20 21 21 23 26 25 25 24 24 25 25 25 25 23 22 22 22 22 21 21
8 9 9 9 10 10 10 10 10 9 9 9 9 10 12 12 13 13 12 11 11 10 9 9 8 8 9 9 9 9 10 10 10 11 11 11 11 13 15 15 15 15 16 15 13 12 11 11 11 11 11 11 12 12 13 14 14 14 15 16 16 16 17 17 17 17 18 18 20 20 20 22 24 24 24 24 24 25 24 24 24 22 22 22 22 21 21 21
8 8 8 7 8 9 9 10 9 8 8 8 9 11 12 11 12 12 12 12 11 10 9 9 8 8 9 9 9 9 10 10 10 10 10 10 11 13 14 14 15 16 16 15 14 13 13 12 12 12 12 13 13 13 13 14 15 15 16 16 16 16 17 17 17 18 19 18 19 20 20 20 22 23 23 23 23 24 24 24 23 22 22 22 22 21 21 21
8 8 7 6 7 8 9 9 8 7 7 8 9 11 11 11 11 11 12 13 12 10 10 9 9 9 9 9 9 9 9 10 10 10 11 12 12 13 14 15 15 16 15 14 14 14 13 13 13 13 13 13 14 14 14 15 16 16 16 16 16 17 17 17 17 18 19 18 19 21 20 20 22 22 22 23 23 23 23 23 23 22 22 22 21 21 21 20
6 6 6 6 6 7 6 7 6 6 7 9 10 11 11 10 10 11 12 12 12 11 10 10 10 11 10 10 9 9 9 10 11 11 11 12 12 12 14 15 15 15 14 14 14 14 13 13 13 13 13 14 14 15 15 16 16 16 16 16 17 17 17 17 17 18 18 18 19 20 20 21 22 22 22 22 22 22 23 23 22 22 21 21 21 21 20 20
5 5 5 5 5 5 5 6 6 7 8 9 10 10 10 10 10 10 11 12 12 11 11 10 11 11 10 10 9 9 10 10 10 11 12 12 12 13 14 15 15 15 15 14 14 14 14 14 13 13 13 14 14 14 15 16 16 17 17 17 17 18 18 18 19 19 18 19 19 20 21 22 22 22 21 20 21 22 22 22 22 22 21 21 21 20 20 20
5 5 5 4 4 5 6 7 7 8 9 9 8 9 9 9 9 10 11 12 13 12 11 11 11 11 11 11 10 10 11 11 11 11 12 11 12 13 13 14 14 14 15 14 14 14 14 13 13 13 13 15 15 14 15 17 17 17 18 18 17 18 18 19 19 19 19 19 20 20 20 21 22 22 21 20 21 22 22 22 22 21 21 21 21 20 20 20
5 5 5 5 4 5 6 6 6 8 9 8 8 8 8 8 9 9 10 12 13 13 12 11 11 11 11 11 11 11 12 11 11 12 12 12 12 13 13 13 13 13 14 14 13 13 13 13 13 12 13 15 14 13 15 17 17 17 18 18 18 19 19 19 19 19 19 19 20 20 20 21 22 21 21 21 22 22 22 22 22 21 21 21 21 21 20 20
Height
848 847 846 844 843 842 841 839 838 836 835 834 832 831 829 828 826 825 823 822 820 818 816 814 812 810 808 805 802 800 797 793 789 788 788 785 785 785 786 785 784 783 782 782 781 779 778 778 778 778 779 778 779 777 776 775 775 779 784 791 793 791 787 781 781 780 779 778 774 768 764 769 768 758 752 750 753 753 755 755 751 750 751 753 754 757 762 767
848 847 845 844 843 841 840 838 837 836 834 833 832 831 829 828 826 824 823 822 820 818 816 814 812 809 807 804 802 800 796 793 790 788 785 784 784 785 785 785 784 783 782 782 781 780 781 780 779 779 779 779 778 776 777 774 774 778 781 787 785 780 777 771 772 772 772 774 771 766 763 765 766 759 754 760 763 758 762 762 756 758 761 760 759 762 764 765
848 847 845 844 842 841 840 838 837 835 834 832 831 830 828 827 826 824 823 821 819 818 816 813 811 809 806 803 801 799 796 792 789 786 784 784 784 784 785 785 784 783 782 782 781 781 781 781 780 780 780 780 778 776 777 774 773 775 777 783 777 771 771 766 766 767 767 768 769 766 761 761 760 755 755 762 764 762 769 768 762 765 766 765 764 765 765 765
848 847 845 844 842 840 839 838 836 835 833 832 830 829 828 826 825 823 822 820 819 817 815 813 811 808 806 803 801 799 796 793 788 785 784 784 784 785 785 784 784 783 782 782 781 781 780 780 780 780 780 782 779 776 777 773 771 772 773 776 769 766 769 766 763 763 763 764 766 766 763 760 754 751 754 760 767 767 767 763 759 762 763 763 762 763 764 766
847 846 844 843 842 840 838 837 836 834 833 831 830 828 827 826 824 823 821 820 818 817 815 813 811 808 805 802 800 799 797 792 787 784 785 784 785 785 785 784 784 783 782 782 781 780 780 779 779 779 780 782 780 778 777 771 769 771 768 767 764 765 768 764 761 761 761 762 764 765 765 758 749 752 754 757 767 766 759 755 751 749 752 755 756 759 763 766
846 845 844 842 841 839 837 836 835 833 832 830 829 827 826 825 823 822 821 819 818 816 815 813 811 809 806 803 800 799 798 791 785 785 785 784 785 785 784 784 783 783 782 781 780 780 779 778 779 780 780 781 781 780 777 770 770 773 767 762 763 763 765 762 758 759 759 762 765 763 760 755 753 756 752 754 759 753 747 747 747 744 744 748 753 758 763 767
845 844 843 841 840 838 836 835 833 832 831 829 828 826 825 823 822 821 819 818 817 815 814 813 811 809 806 803 799 799 801 792 783 784 785 784 785 784 784 784 783 783 782 781 780 781 780 780 780 780 780 782 781 779 776 771 770 773 770 762 762 762 762 760 757 758 758 760 760 757 757 757 759 756 751 754 751 744 743 741 745 747 744 747 751 755 759 763
845 843 842 840 839 837 836 834 832 831 829 828 826 825 823 822 821 820 818 817 816 815 814 812 811 809 807 804 802 802 799 790 783 784 785 784 785 784 784 784 783 783 782 782 781 781 781 781 781 779 782 782 778 776 774 774 773 772 770 765 762 761 760 759 758 758 758 759 757 757 759 758 754 752 751 753 748 744 744 742 747 753 752 751 751 753 757 760
844 842 841 839 838 836 835 833 831 829 828 827 825 824 822 821 820 818 817 816 815 814 813 812 811 809 808 806 806 802 791 784 783 784 785 785 785 784 784 783 783 783 782 782 781 782 782 782 782 781 784 782 778 776 773 778 777 770 768 766 763 762 759 758 758 757 757 756 757 760 761 755 748 751 754 748 744 744 745 747 750 755 759 758 755 754 755 756
844 842 840 838 836 835 833 832 830 828 826 825 823 822 821 820 819 817 816 815 814 813 812 812 810 809 809 806 806 799 785 782 784 784 785 785 785 784 784 784 783 783 782 782 781 782 782 783 782 780 782 780 778 777 774 777 776 768 768 767 765 764 759 757 757 755 755 754 755 760 761 755 749 756 758 743 737 742 746 750 752 755 760 759 757 755 752 752
843 841 839 837 835 834 832 830 829 827 825 823 822 820 819 818 817 816 815 814 813 812 811 811 810 810 809 809 809 797 782 782 783 783 784 784 784 784 784 783 783 783 782 782 781 781 782 782 782 780 780 780 779 777 773 773 772 769 769 769 767 765 760 758 756 754 755 753 751 755 759 756 754 758 754 739 734 741 748 752 752 755 759 758 757 756 755 753
842 840 838 836 834 832 830 829 827 826 823 821 820 818 817 815 814 814 813 812 812 811 811 810 810 810 809 811 806 791 781 782 781 781 782 782 783 783 782 783 783 783 783 782 781 781 781 781 781 783 783 781 782 779 773 771 771 770 770 772 769 766 763 758 756 754 754 753 747 753 764 763 757 754 745 734 733 740 748 752 752 754 755 756 757 757 758 758
841 839 837 835 833 831 829 827 825 824 821 819 817 815 814 812 812 812 810 810 810 810 809 809 809 809 811 808 795 783 782 781 780 778 778 780 781 781 782 782 782 782 782 782 782 781 781 781 781 783 782 782 784 780 773 770 771 771 770 773 773 772 767 756 755 754 753 751 744 754 773 766 752 746 739 733 732 739 747 751 753 754 753 754 756 757 759 761
840 838 836 834 831 829 827 825 823 821 819 817 814 813 811 809 809 808 808 808 807 808 808 808 809 808 809 802 786 781 781 780 779 777 776 778 779 780 780 780 781 781 781 781 781 781 780 780 780 781 781 781 781 778 776 774 773 774 773 773 775 778 769 754 753 755 753 750 743 755 771 760 746 741 735 733 734 738 744 747 751 753 753 753 753 756 758 759
839 837 835 833 830 828 826 824 821 819 817 814 812 809 806 805 804 803 804 804 805 806 806 807 807 807 808 798 784 780 780 779 778 775 775 777 778 779 779 780 780 780 780 780 780 780 780 780 781 782 781 779 780 782 783 781 777 776 778 777 775 777 771 758 751 751 754 750 743 754 763 752 743 738 731 733 736 737 740 743 748 751 752 754 754 755 757 756
838 836 833 831 829 826 824 822 819 817 814 811 808 805 802 800 799 799 800 801 803 804 805 806 805 807 808 796 783 779 778 778 776 774 775 776 777 777 778 779 779 779 779 779 779 779 779 780 781 781 781 781 783 786 788 788 785 780 780 781 776 775 775 766 753 747 750 750 746 748 752 748 742 735 731 733 736 738 739 739 745 750 750 752 754 754 756 756
836 834 832 830 827 825 823 820 818 815 812 809 805 801 797 795 794 795 796 799 801 802 804 804 804 807 802 789 781 779 776 775 774 774 774 774 775 776 777 779 778 778 778 777 778 779 780 781 781 782 782 784 785 787 792 795 793 786 784 785 779 776 775 770 758 747 746 750 747 743 744 745 739 733 733 732 734 738 740 737 740 747 749 749 752 754 755 755
835 833 831 828 826 824 821 819 816 813 811 807 802 798 795 793 793 794 796 799 800 803 804 803 806 805 792 783 781 777 774 774 774 773 773 773 774 774 777 777 777 778 778 779 779 779 781 781 782 785 785 786 786 789 794 790 786 787 787 786 782 777 775 772 763 750 745 749 748 744 743 742 738 734 732 730 730 734 736 735 737 743 747 747 749 752 754 754
834 832 829 827 825 822 820 817 814 812 809 805 800 797 795 794 794 795 797 799 800 801 801 801 803 795 782 779 779 775 774 774 773 773 772 773 774 775 776 776 777 778 780 783 782 780 782 783 785 789 788 787 785 786 787 781 779 783 783 782 780 776 772 767 760 748 744 749 748 745 743 741 741 737 732 730 730 731 732 731 735 741 745 745 746 749 751 752
833 830 828 826 824 821 818 816 813 810 808 805 801 796 796 799 801 800 799 799 797 795 792 792 794 787 779 778 776 776 775 773 773 772 771 772 773 775 775 776 777 780 782 784 785 781 781 787 790 788 785 783 782 783 783 781 782 782 782 782 779 777 772 762 756 746 742 749 748 742 741 741 739 736 732 730 731 732 732 731 733 738 743 743 743 746 747 748
832 830 827 825 822 820 817 814 811 809 808 806 803 801 802 806 808 806 802 796 790 789 787 784 786 784 778 776 775 777 777 774 773 772 772 772 773 775 776 776 780 783 782 782 784 781 782 789 786 780 779 779 781 782 782 784 784 784 785 785 782 779 774 762 756 747 740 747 747 740 742 741 736 734 731 729 731 732 731 732 731 733 740 740 740 742 744 744
831 829 826 824 821 819 816 813 811 809 808 806 805 804 805 806 807 806 804 796 784 782 783 780 781 780 775 774 775 778 780 777 773 770 770 771 772 775 776 777 781 783 781 782 784 786 789 788 778 773 776 779 781 781 783 784 784 785 786 788 786 780 775 766 758 750 743 745 746 742 744 741 733 731 730 728 728 727 726 729 728 729 735 739 738 739 740 743
830 827 825 823 820 818 815 812 811 809 808 807 806 805 804 804 804 803 803 800 787 777 777 777 778 777 776 775 773 776 780 777 774 769 766 769 771 773 774 777 781 781 781 782 785 791 793 783 774 774 778 780 781 781 783 785 784 785 785 788 787 779 779 775 762 753 745 742 742 742 743 741 734 731 729 725 723 721 722 724 725 724 728 732 734 735 737 741
829 826 824 822 819 817 814 811 810 809 808 807 806 805 804 804 803 801 801 802 795 781 773 772 774 774 773 771 769 773 775 773 772 766 763 766 769 770 772 774 777 780 781 780 783 788 785 775 772 775 777 778 781 781 783 786 786 785 782 784 784 779 779 776 766 757 751 745 738 740 749 744 734 732 727 722 723 722 720 721 725 724 723 726 730 731 732 734
828 826 823 821 819 815 812 811 810 809 808 807 806 805 804 803 802 801 802 805 801 784 772 770 771 771 768 767 767 769 770 769 767 763 761 762 765 767 769 769 772 777 778 778 780 783 778 772 772 776 776 776 780 781 781 784 786 785 780 778 779 777 775 774 769 765 767 762 743 741 759 752 733 731 727 722 724 724 720 719 721 722 722 725 729 730 729 730
827 824 822 819 817 814 812 810 809 809 808 806 805 804 803 802 801 800 804 809 798 777 771 771 770 769 767 766 766 766 770 768 762 761 760 760 760 763 766 766 767 771 773 774 777 777 772 769 771 774 776 776 778 780 778 779 785 786 777 773 774 774 775 774 770 771 776 770 747 741 757 755 738 731 726 722 723 722 720 718 716 716 719 722 726 727 727 729
825 822 820 818 816 815 813 811 809 809 807 805 805 804 802 801 801 800 802 804 791 772 770 772 770 769 767 766 765 768 774 769 762 760 758 758 758 759 765 766 765 767 767 771 777 773 767 769 771 772 775 776 777 778 775 774 782 782 771 770 772 771 773 772 770 774 773 766 755 744 748 753 743 728 719 719 722 721 719 717 713 711 713 716 720 722 722 724
823 820 818 816 815 815 813 811 810 809 807 805 804 803 803 800 800 802 798 793 782 770 770 771 768 767 765 765 765 768 772 770 768 763 755 758 759 759 765 764 764 766 765 773 780 770 764 768 769 769 773 775 774 773 769 769 776 774 767 768 769 768 770 767 768 773 770 772 771 753 746 753 742 723 716 716 720 721 716 711 710 708 708 710 715 718 718 719
821 819 816 814 814 813 812 811 810 808 806 804 804 803 802 800 800 802 797 787 777 770 771 771 768 767 767 766 766 768 769 769 769 763 756 760 759 759 764 762 763 768 770 779 784 775 767 765 764 766 769 771 769 766 765 767 770 767 764 766 767 768 767 765 767 768 771 779 775 754 748 756 745 723 717 718 715 712 708 706 706 705 705 706 710 714 715 716
819 817 815 813 813 812 811 810 808 807 805 803 804 802 800 801 800 799 794 785 777 773 772 771 770 770 770 770 769 768 768 766 766 765 764 766 763 760 761 761 764 770 773 779 781 776 769 764 763 764 765 764 764 763 763 765 766 765 765 767 770 769 767 768 765 763 774 780 767 748 743 754 753 729 712 709 704 701 703 704 705 704 703 702 705 710 712 714
816 814 813 812 811 811 811 809 807 806 805 804 803 801 800 801 800 798 790 781 778 777 774 772 772 772 773 776 774 768 766 766 767 769 768 766 766 764 763 765 771 777 778 777 776 773 769 768 764 761 760 759 761 763 762 763 765 767 767 768 774 773 771 773 767 764 777 773 752 740 737 748 753 730 706 698 693 694 698 699 701 703 701 700 702 706 708 710
812 811 811 810 810 810 809 807 806 805 805 804 802 801 801 798 796 796 788 780 780 781 778 777 777 775 776 780 777 769 767 767 767 769 767 765 767 766 767 769 773 783 785 778 776 774 769 766 762 760 758 757 762 765 765 765 766 770 770 771 779 781 777 777 774 769 768 755 737 733 737 741 733 715 701 695 690 687 688 689 692 695 695 695 699 702 703 706
810 808 808 808 808 807 806 806 806 805 805 804 802 803 802 798 793 791 788 784 783 781 779 778 777 776 778 781 776 767 766 768 766 765 764 765 768 766 767 766 766 775 778 775 777 777 774 767 761 762 760 756 760 766 770 769 768 771 772 771 778 781 779 777 772 765 756 745 733 729 736 735 718 702 692 687 685 681 679 681 684 684 686 689 693 697 699 702
807 807 807 807 806 805 805 806 805 805 805 804 804 805 803 801 795 788 787 786 782 779 779 779 778 777 777 778 771 764 765 767 763 762 763 769 775 772 769 766 764 767 769 773 777 776 780 775 763 760 758 754 757 760 764 765 765 766 764 765 768 769 769 765 759 754 749 744 735 730 736 730 712 697 682 677 680 676 674 675 676 677 678 683 689 693 696 700
806 805 805 805 805 804 804 805 805 805 806 804 807 808 804 803 799 792 790 788 784 783 782 780 781 781 778 771 765 762 766 764 760 762 767 771 774 772 768 764 762 764 767 774 774 771 777 773 756 752 752 749 753 754 754 761 767 763 758 761 761 755 756 754 747 740 738 742 735 727 725 710 693 683 672 673 675 671 672 671 671 675 675 681 688 691 695 699
804 803 803 803 803 802 803 804 805 806 806 806 809 810 804 801 797 791 788 787 786 788 785 779 779 783 779 768 762 762 765 763 759 763 769 771 768 764 763 760 757 759 762 768 771 769 774 768 750 749 750 746 749 749 749 757 762 759 759 760 750 743 748 754 751 734 729 741 733 718 714 701 691 684 670 669 671 666 669 670 669 673 674 681 687 689 694 697
803 802 802 800 801 802 802 803 804 805 806 808 809 805 800 797 789 785 785 783 784 788 788 781 776 778 776 770 765 763 764 765 760 758 764 768 762 756 757 755 751 753 754 759 764 762 766 765 750 748 751 745 744 746 744 746 749 753 756 751 742 741 743 750 756 742 731 738 727 710 709 705 702 694 673 667 669 664 666 667 667 671 675 680 684 686 690 692
804 803 801 799 798 800 802 803 805 806 807 810 811 804 797 793 784 780 781 780 782 788 789 784 777 775 775 774 769 762 762 765 761 757 759 760 754 745 747 749 746 746 746 750 758 756 760 764 751 744 748 742 739 746 747 742 742 746 746 742 746 755 752 750 758 752 738 734 724 709 704 700 697 688 673 669 668 662 664 666 666 669 674 678 681 683 687 690
805 804 801 798 798 799 802 803 804 807 808 809 810 803 793 788 781 776 776 778 783 788 787 783 779 776 775 774 770 763 761 762 759 758 756 754 749 739 737 740 738 740 741 744 754 756 759 765 755 744 747 744 739 744 749 743 738 740 742 743 749 756 754 748 745 741 734 730 724 714 706 695 682 671 665 666 662 659 663 665 664 666 670 674 677 681 686 690
806 804 802 799 799 800 802 804 806 809 810 807 805 799 791 786 778 772 772 777 781 782 782 781 779 778 774 771 768 764 761 758 756 756 752 748 746 737 732 733 732 734 736 739 750 756 761 769 762 748 747 748 741 736 738 738 737 740 745 746 748 750 748 744 734 725 725 727 720 714 708 690 667 657 656 657 654 654 657 660 662 663 665 669 672 677 683 687
807 806 804 801 801 801 803 806 807 809 810 806 803 799 792 785 776 769 770 774 776 775 776 779 779 776 774 770 768 765 762 757 753 752 746 741 741 735 727 726 727 731 738 744 753 757 761 768 763 751 747 746 737 726 725 730 732 735 740 742 745 746 745 746 738 720 713 716 709 705 704 680 653 648 650 647 646 647 649 654 658 660 662 666 668 672 677 682
808 807 805 803 803 802 803 806 807 807 808 803 797 792 785 779 773 768 767 770 772 772 774 777 777 774 773 771 769 766 763 758 753 749 741 734 734 730 722 720 722 727 737 747 752 753 757 762 759 750 742 737 733 726 722 724 725 728 733 734 738 741 739 741 740 723 713 711 699 696 700 674 643 639 644 640 639 640 643 647 652 656 660 662 666 669 673 678
811 809 804 803 804 802 805 806 803 803 803 795 788 784 780 777 772 768 766 767 771 774 776 777 776 774 770 767 768 766 762 757 751 746 740 733 728 723 719 719 719 723 735 745 748 750 756 759 755 746 738 737 737 732 724 721 723 729 731 731 734 734 730 729 729 724 724 720 704 700 699 671 640 636 640 637 637 638 640 642 646 653 658 661 665 669 674 678
815 812 806 804 804 804 807 809 804 802 799 792 788 784 779 776 772 768 768 769 769 773 776 776 775 775 769 765 766 764 761 760 753 744 741 736 727 721 718 717 717 722 731 737 741 745 749 750 748 743 742 744 741 735 731 726 726 730 729 729 728 724 724 725 721 720 722 714 702 702 695 665 640 637 637 637 639 639 639 638 641 649 657 661 665 669 674 678
814 811 807 806 806 805 806 806 805 806 801 796 794 787 779 775 770 766 768 768 767 770 774 772 772 773 771 766 764 760 757 759 756 747 742 738 730 723 717 715 716 719 721 723 729 736 739 740 740 738 740 744 738 732 732 727 725 727 726 725 723 721 724 723 720 723 720 706 695 694 684 659 643 640 639 638 640 639 639 639 640 646 653 658 663 668 673 677
814 812 811 809 807 806 805 802 804 807 804 803 799 788 780 777 770 765 767 767 766 768 770 769 769 771 768 765 765 761 755 754 755 750 746 744 738 726 716 714 715 713 713 716 721 728 731 731 730 729 731 734 731 727 724 721 723 726 724 721 720 720 719 717 719 721 715 707 699 689 680 667 653 648 647 642 640 639 640 642 644 648 652 656 661 667 671 675
817 818 820 819 814 809 806 804 806 808 807 807 802 788 782 781 774 767 764 763 765 767 767 767 769 770 765 763 764 763 757 754 754 752 749 745 738 726 716 713 712 708 709 714 718 720 725 725 722 721 722 721 721 722 720 718 719 721 720 719 720 718 714 715 718 711 704 710 704 684 680 676 660 652 650 645 641 640 639 641 645 649 653 655 660 665 669 675
820 821 823 826 822 816 811 808 810 811 806 804 798 789 785 785 780 775 768 762 762 767 767 766 765 764 762 761 763 762 759 755 752 751 746 738 732 727 718 711 709 710 713 717 717 716 721 723 718 718 719 716 714 715 715 714 713 713 715 717 716 714 712 714 714 704 701 709 700 680 677 675 661 652 649 644 642 640 637 638 642 647 652 656 661 666 671 676
826 826 825 826 825 822 819 815 814 812 806 800 795 790 789 788 785 780 772 765 762 764 768 767 760 755 757 758 760 762 758 753 750 747 742 735 731 728 722 714 711 713 715 717 717 717 720 720 717 719 718 714 711 710 709 709 709 708 711 713 710 709 710 709 706 701 699 700 693 682 678 671 660 653 648 643 640 638 636 638 641 647 652 657 662 667 672 676
832 832 830 829 827 825 822 818 814 811 804 798 796 794 793 791 788 782 775 769 766 763 765 766 758 754 755 755 758 758 753 750 750 746 740 737 733 728 723 717 713 713 713 715 717 717 717 717 717 718 716 712 710 710 707 705 705 706 709 708 707 706 705 700 695 694 694 692 687 683 677 667 656 650 647 643 639 638 640 642 645 649 652 657 663 667 670 674
834 834 832 832 830 824 820 817 814 809 802 801 803 800 797 794 790 786 776 767 764 763 762 762 759 755 752 751 753 752 746 745 746 741 737 737 733 727 723 718 716 716 715 715 716 716 716 718 717 717 716 710 708 711 707 698 699 704 705 704 705 705 700 694 690 689 690 690 686 684 682 671 656 649 649 644 639 639 642 644 647 650 652 656 662 666 668 671
834 833 831 833 831 824 820 819 815 809 804 805 807 805 802 797 790 787 780 766 760 760 759 759 758 755 752 749 748 745 742 740 737 731 729 729 726 724 722 718 718 719 717 716 718 718 718 719 718 720 718 709 709 713 705 696 704 709 702 697 698 697 693 693 692 687 687 690 687 684 681 669 656 654 653 647 643 643 644 645 648 650 653 656 659 662 666 668
Wind_Speed
16 16 16 16 16 16 17 16 16 17 17 17 18 18 18 18 19 19 19 19 20 21 21 22 23 24 25 26 28 29 32 29 23 19 9 5 3 2 4 7 11 13 10 5 6 8 7 7 8 6 4 2 1 2 3 3 2 1 3 5 7 8 8 8 8 7 4 5 6 8 10 8 10 10 4 4 7 6 2 6 6 6 6 7 16 28 36 35
17 17 17 17 17 17 17 17 17 17 17 17 18 18 18 18 19 19 19 20 20 21 21 22 23 24 25 27 27 28 30 27 20 15 8 1 2 2 2 6 12 11 8 5 7 10 6 5 8 9 3 1 2 3 3 3 3 4 4 6 9 8 7 8 9 8 6 7 7 10 12 9 11 11 4 4 8 4 7 5 9 12 10 11 18 27 32 34
17 17 18 18 18 18 19 19 19 18 18 18 18 18 18 18 19 19 19 20 20 20 21 22 23 24 26 27 26 27 25 19 10 6 3 3 4 3 2 6 12 11 9 7 8 9 6 7 10 8 1 2 3 3 4 3 4 5 4 7 9 7 6 7 9 8 8 7 8 12 13 11 12 10 4 2 7 4 5 3 8 12 12 14 15 20 27 30
17 17 17 18 19 19 19 19 19 20 19 19 18 18 18 19 19 19 19 19 19 20 20 22 23 25 27 26 25 24 17 9 3 2 2 3 5 2 2 9 12 10 8 7 8 9 9 10 9 4 2 2 3 3 4 5 4 3 6 8 8 7 7 7 8 9 8 7 8 10 13 16 13 8 6 3 6 3 4 7 10 14 17 19 18 19 22 22
18 18 18 18 19 19 19 19 19 20 20 20 20 20 20 20 20 20 19 19 19 20 21 21 23 24 27 26 23 18 10 3 1 2 1 3 3 2 6 9 10 8 6 7 10 11 11 8 4 1 1 1 2 2 4 6 3 2 6 10 7 6 7 7 8 9 8 7 8 10 12 16 12 6 7 6 6 5 4 8 13 19 21 22 21 18 15 15
18 18 18 19 19 19 19 19 20 20 20 21 21 21 21 20 20 20 20 20 20 20 20 20 22 23 25 26 19 9 4 1 4 3 1 1 2 4 7 7 6 6 6 8 11 11 9 6 1 1 1 1 3 4 4 5 4 5 7 8 9 7 6 5 7 9 9 9 10 11 11 12 13 10 8 7 10 8 2 6 12 17 21 22 19 17 15 15
19 19 19 20 19 20 20 20 20 20 20 21 21 21 21 21 20 20 20 20 20 19 20 19 20 21 23 24 13 4 2 5 8 3 1 0 3 4 6 7 5 7 9 10 10 7 6 6 3 1 2 1 4 4 4 6 5 8 8 8 8 8 8 7 6 6 8 12 13 12 10 12 16 14 8 6 9 8 3 6 11 11 17 21 19 19 19 18
19 19 19 20 20 20 20 20 20 20 21 21 22 21 20 21 20 21 21 20 19 19 19 18 19 19 21 19 9 3 2 6 5 1 3 1 3 4 7 7 6 9 11 10 9 6 4 5 4 1 1 2 3 4 4 5 6 8 9 8 7 6 8 9 9 9 9 10 9 10 13 16 18 16 10 7 9 6 4 9 11 9 13 17 19 21 19 18
19 19 19 19 19 20 20 21 21 20 21 20 22 22 21 21 20 20 20 20 19 18 18 18 18 18 17 13 4 3 4 3 2 3 3 3 3 3 5 7 7 10 10 10 11 8 4 3 4 4 3 4 4 4 4 3 4 5 5 6 6 6 7 8 11 14 13 9 6 8 13 17 18 14 12 13 14 7 7 13 13 13 14 14 16 19 19 20
20 20 20 20 20 20 21 22 21 21 21 20 21 21 21 22 21 20 19 19 18 18 18 17 16 16 15 9 3 1 4 2 2 2 2 9 8 7 8 7 7 7 9 12 13 8 4 4 6 5 4 4 3 4 3 3 3 6 6 6 6 7 8 8 11 15 14 12 11 11 13 15 13 9 10 15 15 6 11 16 16 15 14 15 16 17 18 20
20 20 20 21 21 21 21 21 22 22 22 22 22 21 21 22 21 21 19 18 18 17 16 15 15 13 11 7 1 3 5 5 2 8 13 14 11 11 10 9 6 7 9 10 12 11 8 8 9 5 2 3 5 5 4 3 5 7 7 7 6 8 9 8 10 12 11 12 14 13 13 13 9 8 13 17 14 5 11 16 17 17 14 14 16 14 12 13
21 21 21 20 20 21 21 22 23 24 24 23 23 23 22 22 21 21 20 19 18 17 16 15 13 10 8 4 6 9 6 8 15 18 18 15 13 12 10 11 10 10 10 7 11 14 13 13 10 4 1 4 5 4 4 6 7 6 4 4 6 7 9 10 9 9 9 11 13 11 10 12 12 14 18 19 14 4 8 13 15 17 16 14 13 11 8 9
20 21 22 21 21 21 22 22 24 24 25 24 24 23 23 23 22 21 21 20 19 17 16 13 10 8 4 2 12 18 17 20 22 21 18 14 13 12 9 11 11 10 10 8 11 14 14 14 9 3 3 3 3 3 6 8 5 5 3 1 4 6 8 9 7 8 10 9 9 9 8 12 17 20 20 19 14 6 4 10 12 13 13 13 12 10 9 10
21 21 22 22 23 23 23 23 23 24 25 25 25 25 25 25 24 23 22 22 20 16 12 8 7 7 4 7 17 19 18 19 21 19 14 12 12 12 11 10 10 11 11 11 12 12 13 14 9 4 3 2 2 5 7 6 3 2 3 2 2 4 6 6 5 8 10 8 9 9 10 13 16 19 21 17 12 10 8 7 12 12 10 10 12 12 11 11
22 22 22 23 23 24 24 24 25 26 26 27 28 28 29 29 27 27 25 21 16 11 9 8 8 5 3 10 16 13 13 12 15 12 7 11 12 9 9 9 9 11 11 13 13 12 11 11 6 2 2 2 2 5 4 4 2 1 3 4 4 5 4 5 6 8 9 7 9 11 10 13 15 18 19 11 8 10 13 8 9 13 11 10 10 11 12 11
22 22 22 23 23 23 24 25 26 27 28 29 30 30 31 30 27 23 18 13 9 6 6 7 7 7 3 7 8 10 9 7 10 7 3 11 14 11 10 9 9 9 9 11 13 13 10 6 2 2 2 3 2 2 3 4 3 1 3 5 5 5 3 4 7 7 9 6 9 14 12 9 10 14 14 8 9 10 12 12 7 12 13 12 10 10 11 10
22 22 22 23 24 24 25 25 26 27 28 30 31 31 27 21 16 11 6 3 3 4 7 3 4 7 6 8 8 9 7 8 10 10 8 10 12 13 12 8 6 6 6 7 9 9 6 2 1 2 1 0 1 2 2 3 4 3 2 2 3 3 4 5 6 5 8 9 12 16 14 9 5 6 9 9 12 13 12 15 9 10 12 12 11 10 10 10
22 22 23 24 24 25 26 26 27 27 28 29 29 26 17 12 6 3 7 8 5 2 4 2 2 4 4 6 5 5 5 7 7 8 12 12 10 13 13 8 2 1 3 4 3 4 2 0 2 1 2 2 3 3 4 6 5 4 2 0 2 4 6 7 6 5 7 11 14 15 15 13 8 5 7 10 14 16 16 16 11 9 12 12 12 12 11 12
23 23 23 23 24 25 26 26 27 26 26 27 26 18 10 12 9 9 11 9 6 2 3 3 4 2 2 4 6 6 12 15 9 6 13 15 13 13 14 9 1 2 2 3 2 3 3 0 1 2 3 5 6 7 9 7 2 2 2 2 4 5 7 8 7 7 7 9 12 15 15 13 11 9 9 8 9 13 16 14 10 8 11 12 12 12 12 14
23 23 23 24 24 24 26 26 24 23 24 26 25 14 8 8 5 4 3 3 5 7 7 6 9 6 7 7 8 12 16 16 9 5 10 13 12 11 9 5 1 1 2 2 1 3 4 3 3 6 8 9 8 7 8 5 4 5 5 4 6 6 7 7 8 10 10 9 10 14 14 11 12 14 13 11 7 8 11 13 11 8 10 11 12 13 14 14
23 22 22 23 24 24 25 24 20 19 21 22 18 8 3 2 2 3 4 7 12 16 15 13 14 14 15 13 13 13 11 11 9 8 11 9 11 8 3 4 3 1 3 4 2 3 2 5 8 12 12 8 6 4 4 4 5 7 6 5 7 6 6 8 8 9 11 10 9 10 13 13 14 14 14 14 12 10 10 11 13 10 11 11 13 15 15 12
23 22 23 23 23 23 23 21 17 16 17 15 10 3 1 2 3 6 5 7 12 14 16 17 16 16 18 21 22 15 7 9 11 10 12 8 8 7 3 4 5 4 3 3 2 2 1 6 13 13 8 5 5 5 4 5 6 7 6 5 7 6 6 8 11 11 9 10 9 7 10 13 14 13 13 15 17 15 11 10 13 12 11 11 13 14 14 12
23 23 23 23 23 23 22 18 13 12 14 14 9 5 5 5 7 10 6 5 10 7 9 11 12 11 12 16 19 14 8 8 8 8 9 7 6 6 5 5 6 5 4 4 5 3 4 8 8 5 4 5 6 6 6 6 6 6 5 5 6 7 5 6 8 11 10 8 9 8 6 7 10 11 12 15 17 17 15 11 11 12 12 13 15 14 14 15
23 23 23 24 24 23 21 16 10 10 14 14 11 6 6 6 9 13 7 2 6 6 5 7 7 7 9 11 11 10 7 6 5 7 8 8 5 5 6 7 7 5 5 7 7 7 10 9 1 2 5 8 8 8 7 6 5 6 7 7 6 8 9 7 8 11 10 9 9 8 6 6 9 13 14 13 12 15 17 15 10 10 11 10 13 15 16 18
24 23 24 25 23 22 20 13 8 12 15 11 7 8 8 9 11 12 6 1 4 5 4 4 4 4 7 8 8 7 4 4 6 7 7 7 6 5 5 5 5 5 6 8 8 7 11 10 4 5 6 8 9 9 8 6 5 6 7 8 8 10 10 10 12 10 6 7 7 7 7 7 7 13 15 11 11 13 15 17 15 12 10 7 10 13 14 16
24 24 26 25 20 19 15 7 7 14 13 5 8 12 11 12 13 9 3 1 3 3 2 1 3 3 4 2 3 3 2 2 4 9 10 9 7 4 4 4 3 5 6 6 6 4 7 8 7 10 9 8 9 8 8 8 5 5 5 7 9 11 11 13 15 10 3 5 7 6 8 6 4 9 13 12 14 15 14 16 18 15 11 8 9 12 13 14
26 27 27 22 17 15 10 5 10 13 6 3 9 13 13 13 13 7 3 2 2 1 1 1 1 0 2 1 2 2 3 3 6 7 8 7 5 2 4 5 3 4 4 2 4 4 5 6 6 9 10 9 7 6 8 9 7 6 5 6 9 11 12 15 15 9 4 6 10 10 9 6 6 8 10 13 15 16 16 18 19 17 14 10 9 11 15 17
27 28 25 19 13 10 9 9 11 9 5 6 9 11 12 14 11 4 4 2 2 1 1 1 0 1 2 1 3 3 3 5 5 4 1 1 2 1 2 6 5 4 4 3 4 2 2 5 6 7 7 6 6 6 7 8 7 6 6 7 9 10 11 12 12 8 6 6 8 12 8 6 8 6 7 13 17 18 20 21 21 19 17 13 10 12 16 17
29 26 21 17 10 4 6 9 9 7 7 8 8 10 14 12 6 3 4 2 2 1 1 0 1 1 2 2 1 2 3 3 4 2 6 5 1 2 2 5 5 2 3 4 4 4 2 5 5 5 5 4 6 6 6 6 6 6 8 9 8 9 10 10 9 6 5 5 9 14 9 5 6 4 6 12 16 19 19 18 18 17 17 15 11 13 16 16
30 24 18 15 8 1 2 7 8 7 9 8 8 11 13 8 3 4 2 0 1 1 1 0 1 2 3 5 4 4 4 3 2 4 4 2 4 2 0 1 4 0 1 2 7 10 8 7 5 3 4 4 5 5 4 4 4 4 6 7 7 9 8 7 6 4 4 7 12 18 13 6 5 5 8 11 12 15 14 13 13 13 15 16 12 12 15 16
30 22 15 11 7 4 3 5 5 7 9 8 8 10 8 4 3 4 1 2 1 2 2 2 2 3 4 6 7 5 4 2 1 1 2 4 3 2 2 2 3 1 3 5 7 9 9 10 7 4 5 5 4 4 3 3 3 4 4 5 4 6 5 5 5 5 5 9 13 18 15 9 8 7 8 9 10 13 14 14 15 14 15 16 12 13 16 17
27 17 11 9 9 10 8 4 2 5 6 7 6 5 3 4 2 1 1 3 3 2 2 2 3 4 5 7 9 7 4 2 3 4 4 3 3 2 2 3 3 2 3 5 3 4 6 8 7 5 5 5 4 3 3 3 2 3 4 4 4 4 3 4 4 5 7 10 11 13 10 9 10 8 7 10 12 16 16 15 16 17 18 16 13 15 16 16
23 13 7 6 9 13 10 5 3 4 6 7 5 3 3 3 2 3 3 2 2 1 1 3 4 6 7 7 6 5 2 2 3 4 3 2 1 3 3 4 4 3 3 4 2 2 3 5 6 7 4 4 5 4 3 3 4 6 5 5 6 5 4 6 5 6 9 9 10 11 7 7 8 6 9 13 14 17 18 17 17 19 20 16 14 16 16 17
20 9 5 6 10 13 10 5 3 4 6 5 4 3 3 2 1 4 3 2 3 3 2 3 5 8 8 5 4 1 1 2 3 3 2 2 1 3 3 5 7 5 2 2 3 4 4 5 5 7 4 6 8 8 6 4 4 6 7 6 7 6 4 5 6 7 6 4 9 12 7 5 5 5 10 13 12 14 16 18 18 19 18 15 13 16 17 17
17 7 7 8 11 12 9 6 3 6 6 2 4 2 3 1 3 3 3 3 3 4 3 5 7 6 5 4 2 2 2 3 3 3 2 2 3 3 3 5 8 7 3 3 2 3 5 6 6 8 7 8 10 10 9 6 4 5 5 5 8 8 6 3 4 5 4 2 7 7 5 5 5 5 9 13 14 16 17 18 19 18 15 12 12 15 16 16
15 6 6 8 10 8 6 8 6 5 3 4 4 1 0 2 3 1 2 3 3 4 6 7 4 3 3 2 1 1 2 2 2 2 1 3 5 4 5 4 7 9 6 4 2 2 4 5 4 6 6 8 10 11 12 10 6 4 5 8 9 9 7 4 5 3 5 5 6 4 5 6 5 6 9 16 19 20 19 18 19 17 13 13 13 14 15 16
16 9 6 8 10 7 7 11 10 6 2 4 2 2 2 3 3 3 3 3 2 1 4 5 1 2 2 2 2 1 2 1 2 2 2 3 3 5 8 6 7 11 10 7 4 2 4 5 4 6 8 10 9 11 14 15 10 5 5 8 8 8 8 4 4 4 4 6 5 4 6 6 5 6 7 15 21 21 19 17 17 15 14 15 15 15 17 19
15 10 7 8 7 8 10 12 12 5 3 3 1 3 3 3 3 4 4 3 1 1 1 3 1 1 1 1 2 3 2 1 2 2 2 3 3 5 8 7 9 14 14 12 6 2 4 4 6 7 10 11 8 8 11 15 16 12 6 4 2 4 6 4 4 6 4 5 4 4 6 7 7 6 6 13 18 18 16 15 15 14 15 16 16 17 19 19
8 5 5 3 5 11 14 14 10 3 3 1 2 3 3 4 6 6 4 2 1 1 2 3 2 2 2 2 3 3 2 3 3 1 1 3 2 5 7 7 9 14 16 15 7 1 3 2 3 3 4 6 5 7 7 10 15 16 11 5 3 3 3 4 6 7 5 4 3 5 5 5 7 7 9 13 15 14 13 11 13 15 16 17 16 16 17 17
3 3 2 3 10 16 17 13 5 3 1 2 2 3 3 4 7 8 5 5 2 2 2 3 3 2 3 3 4 3 2 4 4 2 2 4 3 4 7 8 8 10 12 11 5 2 3 1 4 1 1 3 3 7 9 8 9 10 9 7 5 4 3 3 4 6 5 3 3 5 5 5 5 6 11 15 15 15 13 12 12 13 16 18 18 17 17 17
2 3 1 9 17 20 16 7 1 1 1 2 3 4 4 4 6 7 5 8 5 4 3 4 4 3 3 3 3 3 2 3 3 3 3 4 4 3 7 11 9 8 8 6 3 2 3 3 5 4 1 2 3 5 10 9 7 7 7 8 6 5 4 3 4 4 5 5 5 5 4 7 5 5 9 14 15 14 13 14 12 13 18 19 18 19 19 18
1 3 2 13 20 17 9 1 2 2 2 3 4 5 5 4 7 8 3 5 4 2 3 4 4 4 4 3 3 3 3 3 3 3 3 3 6 5 4 8 11 13 10 4 5 6 4 2 5 7 4 3 3 4 8 9 7 6 6 6 5 5 5 4 4 3 3 5 4 2 3 7 6 7 9 11 12 12 12 15 14 13 16 18 18 19 19 18
1 3 3 14 21 11 4 2 3 1 3 5 4 5 6 6 7 6 3 1 1 1 2 3 3 4 4 4 3 3 3 3 3 4 3 4 5 4 3 2 10 14 10 3 4 7 4 2 4 6 3 2 4 5 4 5 4 2 5 5 5 6 6 5 4 3 4 6 6 3 3 7 6 5 7 9 9 10 11 14 16 14 13 16 18 18 17 17
1 3 3 11 19 6 3 2 3 4 5 7 9 10 8 4 6 6 4 2 1 1 2 3 2 3 4 4 4 4 4 3 3 3 4 4 4 4 7 4 4 8 8 6 6 6 4 3 2 2 2 2 3 4 4 4 3 2 4 6 7 8 7 6 5 3 4 6 5 4 5 7 6 5 3 5 7 10 12 14 16 15 14 15 17 16 16 17
3 1 2 5 12 5 1 3 2 4 7 9 10 12 9 4 5 6 4 3 3 3 2 2 2 3 5 5 4 6 6 5 4 3 3 4 4 6 6 4 3 2 8 14 13 7 3 3 2 1 2 3 3 3 2 3 4 3 4 8 10 8 7 6 4 3 4 5 4 5 6 7 6 7 4 4 9 10 11 12 13 15 16 17 16 15 16 16
2 1 3 3 2 3 3 2 2 3 5 8 7 8 7 7 8 4 3 3 3 3 3 3 2 3 5 4 4 6 5 5 5 4 5 4 4 4 7 9 8 5 10 18 17 7 1 2 3 3 3 3 3 3 3 1 4 5 7 8 7 7 8 7 4 4 5 5 6 6 5 7 8 7 6 4 9 11 10 10 11 13 17 18 17 17 17 16
2 1 2 3 3 4 3 2 3 2 4 4 3 5 7 10 10 4 1 2 1 1 2 3 2 2 5 5 4 4 4 3 4 4 6 6 4 6 10 11 7 7 13 16 13 5 1 1 3 3 2 3 5 6 6 4 4 5 5 3 4 7 8 7 6 6 4 3 6 7 4 4 7 6 5 5 6 10 12 12 13 14 16 17 17 19 19 18
3 0 1 2 2 3 3 4 5 8 10 6 2 4 7 10 11 9 4 2 1 1 2 2 3 5 6 5 3 3 4 3 3 3 4 5 4 5 8 6 1 8 9 6 4 3 2 1 3 2 3 5 6 6 6 6 5 5 4 2 4 6 7 7 8 8 5 4 7 8 7 4 7 7 6 6 7 8 12 14 15 15 16 17 18 19 19 18
3 1 2 3 1 3 4 7 9 9 10 7 3 3 8 11 11 11 8 5 4 2 1 2 9 11 8 2 2 2 4 2 3 3 3 4 4 3 4 4 2 7 5 1 1 1 2 1 2 2 4 6 4 4 5 5 4 4 4 4 5 6 7 7 7 8 8 7 9 9 8 6 7 7 8 8 6 6 9 11 14 16 17 18 19 20 19 18
3 1 2 2 2 4 5 6 7 6 6 5 4 5 8 10 12 13 10 7 7 5 1 5 13 14 10 2 4 4 5 4 4 5 4 5 5 2 2 3 0 1 2 2 1 1 1 1 2 1 3 4 3 2 3 5 4 3 2 5 4 5 6 4 5 7 6 8 10 8 7 7 6 6 8 6 3 7 9 11 14 16 17 19 19 20 20 20
5 4 4 2 3 3 3 4 5 4 3 4 5 6 8 10 12 14 11 7 4 4 5 9 13 11 8 4 2 5 7 6 8 10 8 8 7 3 2 3 2 4 2 1 1 2 1 1 2 3 3 3 2 4 3 3 6 4 3 5 3 4 4 3 4 4 2 5 8 5 4 5 6 8 8 3 7 12 13 14 14 14 17 20 20 20 20 20
8 7 5 2 3 3 4 4 5 3 2 4 6 8 8 10 13 12 9 5 4 6 6 6 9 8 7 7 6 7 10 10 11 12 10 9 10 7 6 7 6 4 3 2 1 0 1 1 1 3 2 3 4 6 4 4 7 3 5 5 6 5 4 4 6 5 4 5 3 0 2 6 7 7 6 5 7 10 11 11 11 14 16 18 20 21 20 20
Wind_Direction
356 355 354 352 351 349 347 345 343 342 341 340 340 338 338 337 336 337 337 335 335 334 334 334 333 333 333 331 332 337 336 331 327 322 308 263 255 261 292 345 348 338 327 308 350 7 5 0 348 323 301 296 218 214 236 199 194 164 170 209 213 213 209 184 187 195 188 233 247 256 261 260 275 282 313 325 277 271 176 142 125 71 65 134 137 142 147 142
353 351 351 350 350 348 346 344 341 340 340 339 338 335 334 334 334 335 334 333 333 334 334 333 333 333 332 331 333 340 335 328 320 303 293 244 149 192 243 352 352 340 334 327 357 1 349 339 335 334 327 217 245 203 210 210 190 184 181 211 219 212 198 183 190 199 205 227 252 262 264 264 268 276 300 311 297 1 77 98 101 90 76 100 127 142 148 145
348 346 345 344 346 345 343 341 340 339 338 337 335 334 333 331 331 331 331 331 332 333 333 333 333 333 332 331 336 341 334 327 324 297 317 97 141 169 212 344 348 341 340 345 345 334 316 299 301 313 284 231 265 209 210 213 201 202 193 216 223 208 198 196 192 198 208 218 249 265 272 268 261 270 272 266 303 360 98 129 107 115 126 130 141 151 153 154
344 342 341 340 341 340 339 337 337 336 334 334 333 332 332 329 329 329 330 330 330 331 331 332 332 332 331 332 339 342 335 331 334 300 328 122 150 157 334 336 341 339 334 341 336 321 315 301 289 283 205 253 274 231 220 218 217 200 197 221 219 194 208 209 197 206 211 213 237 258 274 273 263 269 278 285 297 291 170 187 158 147 150 152 158 161 161 159
344 341 340 338 337 336 335 334 333 332 331 330 329 329 328 328 328 327 328 328 329 329 329 331 331 333 331 333 341 340 341 360 334 313 280 123 116 343 338 337 344 348 333 332 333 328 324 305 276 257 210 241 264 238 236 232 240 261 230 228 219 192 208 209 204 213 212 216 236 247 258 267 272 280 283 292 275 235 189 207 180 161 161 164 162 156 154 153
346 342 340 337 336 334 333 332 330 329 328 326 326 326 324 324 324 325 324 323 326 326 327 330 330 334 332 335 342 345 14 296 290 322 264 113 18 343 354 353 358 360 341 336 334 332 330 319 301 190 171 211 240 235 265 257 227 253 254 236 225 211 209 212 211 212 213 221 230 239 247 262 277 278 270 273 267 259 208 197 190 172 163 157 151 145 147 157
344 342 340 338 336 334 332 331 328 327 325 325 324 324 323 321 321 322 322 321 321 322 326 328 331 334 334 340 352 36 67 271 284 308 221 6 15 1 11 11 12 356 337 332 329 329 338 339 332 226 192 217 243 238 262 270 247 242 251 252 240 225 226 232 233 221 216 224 229 238 249 256 264 268 261 243 257 286 5 150 178 177 157 148 148 154 158 161
341 340 338 337 334 332 331 328 327 326 324 324 322 323 324 321 320 319 321 322 319 321 324 326 332 334 337 345 360 21 295 260 278 188 173 39 47 32 13 12 1 339 330 320 313 312 332 340 337 337 274 268 264 255 258 273 271 249 247 260 256 238 234 237 248 252 241 235 234 241 248 248 250 259 266 251 245 269 57 116 143 150 154 155 157 160 158 159
341 339 337 335 333 331 330 328 327 325 324 323 320 320 320 317 317 317 318 319 318 319 320 324 329 333 339 342 354 333 280 257 309 155 154 345 1 7 351 352 338 327 328 324 324 324 324 337 349 356 314 291 283 273 275 257 266 271 271 274 269 264 244 226 234 243 247 245 232 239 246 248 252 261 268 259 250 238 122 124 138 149 162 167 164 162 163 166
339 337 336 334 333 332 330 327 325 323 322 321 319 318 316 314 312 313 314 315 316 315 317 322 325 333 342 347 39 320 246 155 87 152 318 319 309 303 302 321 331 326 329 329 333 339 343 343 344 330 283 282 281 279 285 244 292 327 324 311 292 281 265 233 225 230 240 245 231 232 244 251 260 269 266 257 249 214 137 142 151 160 171 175 173 173 173 173
337 336 334 332 331 330 328 326 324 322 320 319 318 316 314 312 309 309 309 309 310 311 314 318 323 330 333 341 42 239 206 171 265 294 308 312 304 298 298 308 316 319 324 323 318 324 334 340 348 340 290 332 323 302 296 302 337 336 326 322 307 288 279 258 239 228 226 240 235 229 244 256 265 256 252 256 253 200 143 154 159 165 177 182 181 181 181 179
336 334 333 332 330 328 327 326 324 321 319 318 317 314 312 310 308 307 304 304 304 306 309 310 318 322 320 318 231 234 241 268 291 298 296 299 301 301 304 299 293 300 308 310 306 312 320 328 344 355 310 343 331 305 311 334 338 327 330 318 301 299 282 260 251 239 218 227 231 229 249 252 245 241 245 254 258 233 155 165 168 171 177 182 183 180 185 191
335 333 332 330 329 327 326 326 324 321 319 317 315 312 309 307 305 304 300 298 297 300 301 302 307 297 296 268 249 262 282 289 297 298 281 282 298 300 300 294 290 289 291 290 294 302 307 313 324 313 297 324 305 293 315 326 324 314 325 253 291 296 269 251 245 248 234 219 209 211 240 242 236 237 240 248 257 262 199 176 177 185 180 178 179 176 186 196
335 333 330 328 328 327 326 325 324 321 318 316 314 310 307 304 302 300 297 294 292 293 293 291 289 272 235 253 271 288 308 302 293 289 276 279 296 296 291 288 283 274 270 270 273 283 290 297 304 297 289 268 278 317 324 322 321 322 305 254 236 240 251 254 232 233 237 219 181 192 231 237 234 236 237 241 251 262 249 190 169 186 186 179 180 175 184 195
334 332 331 329 328 327 327 325 323 321 319 316 313 310 307 305 303 301 299 294 292 292 283 279 267 254 263 270 275 303 329 306 276 278 283 272 274 279 276 271 273 270 261 256 257 264 274 286 302 301 281 292 334 338 336 328 327 318 249 240 212 219 261 289 252 221 225 227 182 190 230 237 230 236 237 228 227 250 253 228 162 173 185 178 181 180 184 192
333 331 330 329 327 327 327 325 323 321 319 317 313 311 309 309 307 303 299 288 287 282 256 267 238 207 256 280 282 304 298 262 261 288 289 251 247 239 247 262 274 273 265 258 248 249 259 276 285 213 265 324 10 10 2 340 319 280 218 230 227 223 235 272 271 231 214 230 207 206 225 234 228 232 236 219 214 234 250 249 186 164 185 179 178 187 183 181
332 330 329 329 328 327 326 326 324 321 320 318 315 316 320 323 314 296 284 239 256 236 211 228 178 185 246 280 296 300 260 231 258 269 240 225 226 227 236 251 260 265 281 280 250 234 238 244 202 224 256 270 162 92 49 275 265 266 235 249 270 248 223 230 270 255 208 217 225 224 226 230 238 223 215 211 222 230 240 250 225 164 181 182 175 183 181 177
332 331 330 329 328 327 326 326 325 323 321 318 319 325 343 17 28 102 121 126 116 135 206 239 129 166 256 267 269 283 274 277 278 256 236 219 205 211 222 231 232 8 349 335 260 203 179 241 143 201 279 192 186 149 184 220 219 226 224 339 281 255 247 234 247 249 210 219 231 233 231 228 243 255 222 206 217 230 233 241 237 172 170 179 174 177 181 182
333 332 331 330 330 328 326 327 326 324 323 323 331 344 30 54 59 90 112 125 113 103 230 219 177 185 278 242 239 283 308 309 301 244 226 215 207 211 214 224 237 87 62 32 291 206 151 270 142 184 241 214 205 196 207 220 207 252 260 233 238 239 246 243 248 250 231 231 232 234 237 226 227 244 249 236 216 229 237 237 234 183 168 178 176 178 182 184
334 333 332 331 331 329 327 327 325 327 328 327 337 359 42 39 29 58 91 165 210 236 254 228 197 227 275 272 275 294 310 310 296 239 218 202 192 200 198 197 203 120 147 127 254 257 153 172 223 215 224 218 214 217 226 256 315 304 296 268 260 259 253 244 244 246 240 244 237 233 240 232 225 228 234 246 236 228 239 239 232 193 171 181 177 177 184 187
336 334 333 331 331 330 327 326 327 332 331 325 333 0 51 17 345 325 314 270 247 238 247 244 217 228 251 260 273 286 303 304 293 269 256 226 172 174 178 159 168 222 219 168 182 290 145 181 223 220 222 220 219 237 251 268 276 273 279 281 275 265 265 266 261 253 238 243 246 229 233 232 228 226 225 235 241 235 226 229 236 209 177 183 183 180 184 183
338 334 333 332 331 330 326 327 330 333 335 333 344 22 222 303 339 321 308 288 272 238 233 244 234 237 248 255 263 267 274 280 282 269 253 231 164 169 179 162 176 205 211 163 167 277 254 227 235 226 215 212 226 241 246 253 251 252 255 265 270 265 281 285 277 272 249 239 248 231 227 232 228 226 222 224 231 237 224 211 230 224 190 185 189 183 178 171
338 334 334 333 332 329 325 327 330 334 342 339 330 312 308 331 342 338 331 295 297 267 224 233 233 238 247 255 258 250 246 255 267 267 235 197 169 179 176 172 190 199 188 172 180 209 238 244 244 225 186 202 229 233 230 248 251 244 240 238 253 260 267 273 272 276 269 254 250 241 235 236 229 227 225 221 223 233 233 215 216 227 214 194 189 184 172 168
338 336 335 332 330 326 323 324 325 335 337 327 318 330 4 3 355 357 0 261 295 295 244 222 212 224 238 248 245 220 217 220 228 270 244 197 183 180 179 181 187 197 188 187 191 205 239 253 258 142 190 205 224 230 220 232 248 244 241 236 246 253 251 261 280 287 296 284 251 239 252 246 221 220 223 222 220 229 234 227 215 224 229 198 179 184 177 170
337 336 333 331 328 323 324 325 326 336 329 319 343 11 18 2 357 8 18 279 288 280 251 215 185 215 243 245 228 199 206 216 210 246 238 205 195 180 195 193 182 203 193 193 203 216 242 252 246 229 226 213 219 228 219 214 241 251 241 238 245 254 257 265 272 278 304 292 252 220 234 250 230 220 221 215 215 224 231 233 226 220 225 192 166 182 182 174
336 333 331 330 327 326 330 332 335 335 323 321 11 2 351 346 351 8 40 2 303 272 251 159 161 226 272 251 206 190 229 233 236 253 246 231 223 204 211 200 177 207 189 188 211 225 242 238 226 231 236 230 223 226 221 211 228 250 237 238 245 250 255 258 261 262 254 273 285 258 236 257 267 227 217 209 213 220 224 233 233 223 217 194 170 177 177 178
334 332 332 329 329 332 327 318 332 332 312 314 357 355 345 339 343 1 57 41 346 275 217 198 148 238 274 204 111 116 234 299 332 283 242 218 219 222 223 205 184 198 167 169 222 209 222 220 219 230 230 233 230 226 217 205 220 244 234 239 246 245 245 248 254 255 256 291 307 290 261 252 251 226 208 203 212 221 220 225 231 228 220 201 181 179 178 180
333 334 335 331 332 323 289 287 312 315 290 303 339 351 338 330 336 9 81 64 17 50 204 238 236 298 264 286 77 114 234 292 314 277 243 148 171 90 240 209 188 187 139 153 230 206 164 196 212 228 225 226 228 221 206 200 219 235 230 239 250 253 251 251 253 251 263 295 292 278 270 246 241 229 198 200 209 218 217 217 221 224 224 211 190 185 182 179
332 334 337 334 331 305 274 270 274 297 311 313 334 334 323 327 348 56 92 76 6 337 222 349 345 301 295 317 20 163 231 249 231 275 24 14 352 102 223 206 175 197 97 119 238 273 250 222 218 214 212 214 224 224 203 200 226 232 226 238 259 269 266 261 253 242 246 254 256 259 256 242 253 235 195 204 209 213 213 214 215 215 220 217 198 184 183 178
335 336 338 331 318 264 278 265 265 317 335 327 325 313 316 335 41 65 45 356 11 286 237 28 334 326 328 312 293 245 240 238 264 348 25 327 302 9 271 105 105 141 10 158 240 256 263 276 278 239 225 211 207 226 218 211 251 266 237 234 254 263 267 274 257 213 221 241 247 252 245 237 266 241 207 209 207 207 207 209 214 214 218 218 199 180 182 178
336 337 332 318 293 255 264 269 287 342 344 330 319 310 323 1 82 75 34 253 275 310 320 335 313 320 324 308 297 273 250 231 101 359 205 206 269 341 39 53 92 136 251 219 235 248 252 263 266 256 252 228 199 217 240 238 271 290 251 215 233 253 255 269 246 183 207 238 239 245 244 236 244 240 227 221 201 198 204 204 205 209 217 217 196 181 183 177
336 336 318 292 268 249 240 247 331 3 339 320 327 338 21 44 37 85 252 285 291 302 317 299 290 295 300 300 287 273 267 245 175 196 214 182 201 210 161 177 153 148 232 220 233 249 238 245 249 255 255 224 199 210 245 263 250 257 251 211 206 229 225 229 217 191 219 237 238 238 239 238 243 240 231 227 205 197 201 203 202 205 213 213 191 182 182 176
336 331 298 270 259 250 244 259 334 358 320 315 345 30 81 65 6 253 270 309 262 239 250 245 258 281 295 303 279 262 266 251 197 196 206 160 202 245 213 205 188 175 208 207 213 237 263 277 254 245 244 195 190 196 206 229 218 220 227 210 202 201 203 204 195 211 223 232 243 239 231 247 261 244 211 211 207 199 197 197 203 208 211 205 187 181 180 175
339 328 277 259 254 255 252 252 295 307 300 327 26 46 54 49 284 267 283 265 249 282 272 256 284 294 293 279 248 204 78 240 208 178 166 121 158 260 241 228 218 210 176 167 192 197 237 280 237 220 212 174 193 206 197 201 220 227 222 219 222 217 218 203 191 218 225 224 240 233 221 228 241 225 205 200 200 200 197 196 202 211 210 197 182 179 176 174
339 320 275 268 256 258 250 224 242 273 279 18 60 45 43 2 270 286 278 249 280 300 273 271 287 297 294 259 238 104 137 224 198 140 114 154 185 213 213 215 212 205 164 171 208 179 211 249 232 220 211 182 196 207 197 201 233 238 227 228 230 222 233 253 227 221 182 188 241 224 211 232 236 231 205 193 196 199 200 199 202 210 205 183 176 177 173 171
338 321 282 268 259 254 217 192 198 227 232 70 56 4 100 224 240 232 260 265 275 282 293 294 266 255 289 273 337 32 170 213 211 152 182 208 205 206 208 209 200 197 186 185 206 164 205 246 214 207 228 208 205 206 192 192 213 219 209 226 234 227 232 259 274 248 153 185 247 222 215 249 262 257 210 193 197 198 199 201 202 206 189 168 174 175 170 170
341 337 304 273 264 241 185 177 183 189 117 75 66 277 235 235 240 217 236 264 266 255 305 307 232 160 286 280 316 304 174 193 241 203 190 210 224 214 208 210 198 201 200 194 211 199 204 257 231 206 244 237 218 215 203 196 205 205 193 217 234 237 237 244 283 285 179 198 254 230 210 216 227 259 228 197 198 199 200 201 202 199 176 167 176 174 170 172
336 334 310 280 252 208 181 175 176 165 72 79 259 272 242 231 237 223 217 230 263 130 216 271 232 143 254 262 293 270 197 220 244 220 202 210 237 210 197 203 203 203 203 195 208 218 182 260 258 212 238 244 213 208 209 197 203 213 218 219 185 208 234 228 245 268 232 212 264 255 218 203 208 232 226 205 203 201 202 202 200 191 174 171 177 174 171 169
336 342 318 285 180 172 173 169 161 115 57 71 266 263 242 244 251 248 228 189 173 156 211 247 222 224 252 220 271 286 233 239 242 221 207 195 223 213 191 195 201 202 204 196 194 181 151 247 269 183 240 258 195 188 206 193 197 211 228 236 182 193 235 210 216 247 243 210 239 254 233 221 222 212 201 206 209 205 200 199 200 189 176 175 175 171 169 165
7 11 307 174 156 162 164 158 132 70 90 211 224 248 272 277 269 260 212 164 178 186 209 250 222 236 276 245 260 283 263 260 254 235 219 193 218 235 196 197 204 194 191 185 169 95 114 207 256 224 300 275 197 189 197 193 191 198 214 221 211 221 237 228 234 242 242 225 214 228 241 248 239 206 194 198 205 210 198 188 197 185 173 176 174 167 167 166
10 17 204 159 155 155 150 136 70 140 204 251 225 252 276 254 268 279 204 182 210 211 202 247 244 244 277 274 276 289 281 280 262 243 239 205 216 243 201 199 193 155 147 154 158 165 152 191 242 263 277 245 235 193 182 190 196 187 199 212 211 217 221 240 268 251 235 239 212 192 236 262 240 198 196 197 199 206 191 178 188 181 172 176 173 168 167 167
50 25 191 164 159 153 135 66 293 189 215 270 223 235 276 269 279 299 262 192 211 217 211 244 247 242 255 254 263 281 276 277 259 233 253 242 223 226 215 203 180 150 141 165 186 179 170 194 244 256 245 208 246 235 185 180 181 186 208 213 210 229 223 217 254 293 288 271 256 189 244 270 246 195 196 203 199 196 184 175 177 176 172 172 170 168 167 165
109 332 246 175 169 155 84 323 297 277 247 275 268 267 290 294 286 294 306 242 223 187 210 238 245 238 231 221 232 276 281 273 254 233 269 291 245 237 311 241 178 156 147 165 177 167 171 213 242 256 264 189 224 237 189 146 126 173 218 214 214 233 237 235 256 297 312 290 281 274 264 271 267 225 205 210 201 185 180 177 172 167 167 167 166 165 162 161
270 286 276 182 181 178 30 241 279 314 291 304 315 304 295 277 276 288 293 286 257 206 226 244 242 244 255 249 237 251 270 275 273 269 279 286 272 299 332 336 177 160 159 174 171 165 183 208 222 268 18 73 175 179 152 138 143 182 215 228 235 242 257 275 275 262 262 257 241 236 252 254 269 294 257 201 183 181 187 183 169 159 159 162 162 161 158 159
313 260 306 200 193 213 253 187 255 301 305 320 315 305 302 281 283 287 263 241 227 203 228 248 223 242 265 275 268 263 260 244 254 303 305 285 300 306 302 303 300 231 183 179 170 161 187 204 197 156 90 90 137 156 151 159 168 185 221 231 238 250 257 265 278 265 259 271 250 227 247 264 290 326 310 197 170 179 192 183 163 154 154 158 159 158 158 161
1 52 329 315 224 269 266 240 330 302 305 324 311 300 314 315 305 280 199 222 240 212 228 249 272 282 269 272 288 282 262 229 232 288 306 290 297 287 276 289 296 252 185 174 167 156 166 217 225 201 153 144 177 209 263 209 147 187 220 230 244 257 252 252 265 253 257 302 292 251 250 280 301 328 318 240 182 175 179 169 154 150 152 156 157 159 161 165
28 74 8 349 318 320 297 285 359 330 298 314 299 295 317 322 321 322 181 208 212 217 264 241 211 250 265 289 311 290 281 258 234 263 282 267 254 267 278 287 277 192 169 167 167 158 67 296 259 235 210 228 217 221 242 228 172 188 208 236 266 266 268 267 254 245 260 307 283 276 298 282 270 293 310 272 214 178 168 160 153 150 153 156 157 159 164 166
30 90 58 20 298 310 325 310 325 318 305 302 278 297 326 333 335 338 322 259 177 38 342 284 265 261 269 292 313 282 290 300 259 248 266 263 268 289 292 294 185 144 149 158 170 153 116 226 257 279 301 275 239 218 221 212 195 178 163 195 253 269 281 271 252 257 276 269 256 282 323 301 262 281 295 269 237 191 169 158 152 150 151 153 154 158 163 165
22 349 353 20 308 276 296 298 299 299 300 306 307 330 340 338 333 330 322 310 319 337 125 307 314 317 317 314 154 247 284 298 293 278 266 277 290 305 304 318 90 133 146 161 246 153 122 226 260 311 308 287 256 215 208 204 197 157 147 200 234 259 267 258 262 278 289 283 272 289 316 295 262 271 284 274 244 185 158 147 144 146 148 150 154 158 162 167
30 333 329 345 294 273 270 283 293 285 295 329 348 345 341 333 329 329 321 307 313 324 343 314 313 317 322 323 162 216 245 230 254 262 257 290 302 289 254 280 324 139 163 151 234 275 99 279 286 14 329 292 286 274 228 190 148 116 172 224 238 276 284 283 289 294 303 296 285 296 319 300 277 283 292 285 163 132 130 138 143 147 150 152 156 162 165 169
6 330 328 311 288 301 288 290 306 298 316 7 0 341 336 325 322 326 314 283 275 307 314 310 308 307 313 314 209 236 263 258 250 245 235 247 259 249 252 274 319 344 327 140 29 350 57 321 314 39 25 288 305 349 332 111 89 57 272 248 247 270 277 282 286 291 297 279 287 323 338 292 294 310 314 337 121 132 138 145 149 151 154 156 159 166 170 172
356 338 344 327 276 319 335 323 323 322 347 7 343 332 325 312 316 326 322 304 301 305 292 290 303 311 323 328 314 297 299 286 264 253 238 233 240 241 252 262 268 283 265 188 98 341 131 100 343 38 30 272 304 346 353 71 64 355 263 224 207 226 259 291 290 271 221 226 254 31 225 259 291 311 327 31 97 132 141 147 154 155 158 160 163 168 172 174